FW9465 Weather Reports


Display with metric or nautical units.
time (UTC)temp
F
wind
direction
speed
MPH
gust
MPH
rain 1hr
in
rain 24hr
in
rain mn
in
humidity
%
barometer
mb
20260831155922 92 189 6.0 10.0 0.00 0.00 0.00 42 1017.3
20260831154923 91 213 9.0 15.0 0.00 0.00 0.00 43 1017.1
20260831154020 90 177 5.0 9.0 0.00 0.00 0.00 45 1017.2
20260831153021 90 215 10.0 14.0 0.00 0.00 0.00 46 1017.0
20260831152120 89 197 8.0 13.0 0.00 0.00 0.00 47 1016.9
20260831151120 89 199 7.0 14.0 0.00 0.00 0.00 50 1016.9
20260831150121 88 192 7.0 16.0 0.00 0.00 0.00 50 1017.0
20260831144239 87 196 6.0 8.0 0.00 0.00 0.00 55 1017.0
20260831143321 86 199 7.0 10.0 0.00 0.00 0.00 56 1017.0
20260831142420 86 195 7.0 12.0 0.00 0.00 0.00 58 1017.1
20260831141519 85 163 6.0 12.0 0.00 0.00 0.00 60 1017.0
20260831140520 84 190 8.0 12.0 0.00 0.00 0.00 62 1016.9
20260831134620 82 174 5.0 10.0 0.00 0.00 0.00 65 1016.7
20260831133622 81 180 5.0 7.0 0.00 0.00 0.00 68 1016.8
20260831132620 80 162 5.0 12.0 0.00 0.00 0.00 69 1016.4
20260831131636 79 157 6.0 9.0 0.00 0.00 0.00 71 1016.4
20260831130635 78 160 7.0 10.0 0.00 0.00 0.00 73 1016.1
20260831125721 77 159 4.0 7.0 0.00 0.00 0.00 75 1016.1
20260831124720 76 164 4.0 7.0 0.00 0.00 0.00 76 1015.9
20260831123735 76 157 4.0 7.0 0.00 0.00 0.00 77 1015.9
20260831122820 75 159 4.0 7.0 0.00 0.00 0.00 78 1015.8
20260831121823 75 162 4.0 6.0 0.00 0.00 0.00 77 1015.7
20260831120920 75 157 4.0 7.0 0.00 0.00 0.00 77 1015.5
20260831115920 75 159 4.0 7.0 0.00 0.00 0.00 77 1015.4
20260831114021 76 156 2.0 5.0 0.00 0.00 0.00 75 1015.3
20260831113020 76 164 3.0 6.0 0.00 0.00 0.00 74 1015.1
20260831112021 76 157 4.0 6.0 0.00 0.00 0.00 74 1015.1
20260831111035 76 157 4.0 5.0 0.00 0.00 0.00 75 1015.0
20260831103119 76 167 4.0 7.0 0.00 0.00 0.00 71 1014.9
20260831102120 77 157 3.0 6.0 0.00 0.00 0.00 70 1015.0
20260831101121 77 157 3.0 4.0 0.00 0.00 0.00 69 1015.0
20260831100136 77 157 4.0 7.0 0.00 0.00 0.00 69 1014.9
20260831095220 77 158 3.0 4.0 0.00 0.00 0.00 68 1014.8
20260831092319 79 157 2.0 4.0 0.00 0.00 0.00 64 1014.7
20260831091337 79 177 3.0 5.0 0.00 0.00 0.00 65 1014.7
20260831090319 79 160 3.0 6.0 0.00 0.00 0.00 63 1014.6
20260831085322 80 157 2.0 4.0 0.00 0.00 0.00 62 1014.5
20260831084322 80 163 3.0 5.0 0.00 0.00 0.00 62 1014.6
20260831083338 81 176 4.0 6.0 0.00 0.00 0.00 61 1014.6
20260831080419 81 182 4.0 6.0 0.00 0.00 0.00 60 1014.6
20260831075420 81 179 5.0 10.0 0.00 0.00 0.00 59 1014.5
20260831074422 81 191 5.0 10.0 0.00 0.00 0.00 59 1014.6
20260831073420 81 189 5.0 9.0 0.00 0.00 0.00 59 1014.6
20260831072421 81 170 4.0 8.0 0.00 0.00 0.00 57 1014.5
20260831071422 82 164 5.0 9.0 0.00 0.00 0.00 56 1014.5
20260831065518 82 171 3.0 5.0 0.00 0.00 0.00 55 1014.6
20260831064522 82 164 5.0 9.0 0.00 0.00 0.00 53 1014.7
20260831063619 82 172 6.0 12.0 0.00 0.00 0.00 52 1014.6
20260831062636 83 164 5.0 9.0 0.00 0.00 0.00 51 1014.6
20260831061718 83 158 4.0 8.0 0.00 0.00 0.00 51 1014.6
20260831060721 83 163 5.0 8.0 0.00 0.00 0.00 51 1014.5
20260831055720 83 163 5.0 8.0 0.00 0.00 0.00 50 1014.6
20260831054720 83 163 4.0 6.0 0.00 0.00 0.00 49 1014.6
20260831053818 83 164 4.0 7.0 0.00 0.00 0.00 50 1014.7
20260831052819 83 159 3.0 5.0 0.00 0.00 0.00 49 1014.5
20260831051836 84 159 4.0 6.0 0.00 0.00 0.00 49 1014.4
20260831050921 84 168 5.0 9.0 0.00 0.00 0.00 48 1014.4
20260831045934 84 157 5.0 8.0 0.00 0.00 0.00 48 1014.4
20260831044919 84 161 4.0 8.0 0.00 0.00 0.00 46 1014.2
20260831043937 85 160 4.0 5.0 0.00 0.00 0.00 45 1014.2
20260831043020 85 161 3.0 5.0 0.00 0.00 0.00 45 1014.3
20260831042022 86 157 4.0 7.0 0.00 0.00 0.00 44 1014.4
20260831040018 87 160 5.0 7.0 0.00 0.00 0.00 43 1014.1
20260831034021 87 157 5.0 7.0 0.00 0.00 0.00 41 1014.0
20260831033119 88 158 5.0 8.0 0.00 0.00 0.00 40 1014.0
20260831032120 88 156 5.0 6.0 0.00 0.00 0.00 41 1013.9
20260831031136 88 157 5.0 7.0 0.00 0.00 0.00 40 1013.8
20260831024335 89 153 7.0 9.0 0.00 0.00 0.00 39 1013.4
20260831023320 89 155 6.0 8.0 0.00 0.00 0.00 37 1013.3
20260831022319 89 146 5.0 9.0 0.00 0.00 0.00 38 1013.2
20260831020420 90 157 4.0 6.0 0.00 0.00 0.00 36 1012.9
20260831014434 91 151 5.0 7.0 0.00 0.00 0.00 35 1012.7
20260831013434 91 146 6.0 7.0 0.00 0.00 0.00 35 1012.6
20260831012420 92 156 5.0 7.0 0.00 0.00 0.00 35 1012.5
20260831010534 94 147 5.0 7.0 0.00 0.00 0.00 32 1012.4
20260831005620 95 152 5.0 7.0 0.00 0.00 0.00 31 1012.4
20260831004719 96 150 5.0 8.0 0.00 0.00 0.00 31 1012.3
20260831003721 96 151 5.0 8.0 0.00 0.00 0.00 30 1012.4
20260831002720 97 133 4.0 7.0 0.00 0.00 0.00 30 1012.3
20260831001818 97 148 9.0 13.0 0.00 0.00 0.00 30 1012.3
20260831000819 98 150 7.0 11.0 0.00 0.00 0.00 30 1012.3
20260830235918 99 156 11.0 14.0 0.00 0.00 0.00 28 1012.3
20260830235018 99 157 8.0 10.0 0.00 0.00 0.00 29 1012.4
20260830234019 99 151 9.0 12.0 0.00 0.00 0.00 28 1012.4
20260830233036 99 158 8.0 13.0 0.00 0.00 0.00 28 1012.4
20260830232019 100 152 8.0 11.0 0.00 0.00 0.00 27 1012.5
20260830230020 100 139 5.0 8.0 0.00 0.00 0.00 26 1012.5
20260830225018 100 143 7.0 9.0 0.00 0.00 0.00 27 1012.4
20260830224019 100 151 7.0 10.0 0.00 0.00 0.00 26 1012.6
20260830223021 100 142 3.0 8.0 0.00 0.00 0.00 26 1012.5
20260830222020 100 87 9.0 14.0 0.00 0.00 0.00 27 1012.5
20260830221022 101 154 7.0 11.0 0.00 0.00 0.00 27 1012.6
20260830220117 100 153 6.0 10.0 0.00 0.00 0.00 27 1012.4
20260830215119 101 134 5.0 10.0 0.00 0.00 0.00 27 1012.4
20260830214120 100 155 10.0 13.0 0.00 0.00 0.00 27 1012.7
20260830213118 101 159 8.0 13.0 0.00 0.00 0.00 27 1012.7
20260830213036 101 156 6.0 11.0 0.00 0.00 0.00 27 1012.7
20260830211118 101 144 5.0 13.0 0.00 0.00 0.00 28 1013.0
20260830210121 101 149 7.0 11.0 0.00 0.00 0.00 27 1012.9
20260830205119 101 170 9.0 14.0 0.00 0.00 0.00 27 1013.2
20260830204119 100 160 9.0 14.0 0.00 0.00 0.00 27 1013.3
20260830203120 99 173 6.0 10.0 0.00 0.00 0.00 28 1013.5
20260830202219 99 165 7.0 9.0 0.00 0.00 0.00 29 1013.6
20260830200318 99 166 12.0 16.0 0.00 0.00 0.00 29 1013.9
20260830195319 99 165 7.0 13.0 0.00 0.00 0.00 28 1014.0
20260830193417 98 163 7.0 10.0 0.00 0.00 0.00 30 1014.3
20260830192419 98 156 9.0 14.0 0.00 0.00 0.00 30 1014.4
20260830191434 98 152 11.0 14.0 0.00 0.00 0.00 31 1014.5
20260830185518 98 174 8.0 14.0 0.00 0.00 0.00 31 1014.7
20260830184517 97 151 5.0 8.0 0.00 0.00 0.00 32 1014.8
20260830183519 97 133 5.0 9.0 0.00 0.00 0.00 32 1014.9
20260830182521 97 155 10.0 16.0 0.00 0.00 0.00 33 1015.1
20260830181519 97 150 11.0 16.0 0.00 0.00 0.00 33 1015.3
20260830180519 97 157 8.0 11.0 0.00 0.00 0.00 33 1015.4
20260830174618 96 153 7.0 10.0 0.00 0.00 0.00 33 1015.6
20260830173618 96 151 13.0 18.0 0.00 0.00 0.00 33 1015.8
20260830172635 96 160 13.0 18.0 0.00 0.00 0.00 34 1016.0
20260830171719 96 178 9.0 13.0 0.00 0.00 0.00 36 1016.1
20260830165717 95 194 5.0 8.0 0.00 0.00 0.00 37 1016.4
20260830164718 95 192 7.0 12.0 0.00 0.00 0.00 39 1016.5
20260830163718 95 168 7.0 16.0 0.00 0.00 0.00 40 1016.7
20260830161733 94 195 6.0 10.0 0.00 0.00 0.00 42 1016.7
20260830160733 94 161 11.0 15.0 0.00 0.00 0.00 44 1016.6